Location: Winthrop
(48.4780°N, 120.1850°W)
Time: 18:45:13
(UTC-07:00)

CAS-4B - Pass Details

Date: 25 May 2022
Orbit: 523 x 537 km, 43.0° (Epoch: 29 June)

Event Time Altitude Azimuth Distance (km) Brightness Sun altitude
Rises 22:54:08 0° 268° (W) 2,654 ? -15.1°
Reaches altitude 10° 22:56:39 10° 255° (WSW) 1,761 ? -15.3°
Maximum altitude 22:59:55 24° 200° (SSW) 1,111 ? -15.6°
Enters shadow 23:00:19 24° 191° (S) 1,123 ? -15.6°
